Stündliche Wetter Abolone

Heute, 22 Juni, Dienstag

Zeit Temperatur Niederschläge Wind Luftdruck Luftfeuchtigkeit
00:00 +20°C° 0 mm 2 m/S 744 mmHg 90%
01:00 +20°C° 0 mm 2 m/S 744 mmHg 94%
02:00 +20°C° 0 mm 2 m/S 744 mmHg 97%
03:00 +20°C° 0 mm 2 m/S 744 mmHg 95%
04:00 +21°C° 0 mm 2 m/S 744 mmHg 93%
05:00 +21°C° 0 mm 2 m/S 744 mmHg 91%
06:00 +24°C° 0 mm 3 m/S 744 mmHg 81%
07:00 +26°C° 0 mm 3 m/S 744 mmHg 71%
08:00 +27°C° 0 mm 4 m/S 744 mmHg 61%
09:00 +29°C° 0 mm 4 m/S 744 mmHg 55%
10:00 +30°C° 0 mm 4 m/S 744 mmHg 48%
11:00 +32°C° 0 mm 4 m/S 744 mmHg 42%
12:00 +33°C° 0 mm 4 m/S 744 mmHg 40%
13:00 +33°C° 0 mm 4 m/S 744 mmHg 37%
14:00 +34°C° 0 mm 4 m/S 744 mmHg 35%
15:00 +34°C° 0 mm 3 m/S 744 mmHg 38%
16:00 +33°C° 0 mm 3 m/S 744 mmHg 42%
17:00 +33°C° 0 mm 3 m/S 744 mmHg 45%
18:00 +30°C° 0 mm 2 m/S 744 mmHg 54%
19:00 +27°C° 0 mm 2 m/S 744 mmHg 64%
20:00 +25°C° 0 mm 2 m/S 744 mmHg 73%
21:00 +24°C° 0 mm 2 m/S 744 mmHg 76%
22:00 +23°C° 0 mm 2 m/S 744 mmHg 79%
23:00 +23°C° 0 mm 2 m/S 744 mmHg 82%

Morgen, 23 Juni, Mittwoch

Zeit Temperatur Niederschläge Wind Luftdruck Luftfeuchtigkeit
00:00 +21°C° 0 mm 2 m/S 744 mmHg 87%
01:00 +21°C° 0 mm 2 m/S 745 mmHg 91%
02:00 +20°C° 0 mm 2 m/S 745 mmHg 96%
03:00 +21°C° 0 mm 2 m/S 745 mmHg 95%
04:00 +21°C° 0 mm 2 m/S 745 mmHg 94%
05:00 +21°C° 0 mm 2 m/S 745 mmHg 93%
06:00 +24°C° 0 mm 2 m/S 745 mmHg 85%
07:00 +26°C° 0 mm 3 m/S 745 mmHg 76%
08:00 +28°C° 0 mm 3 m/S 745 mmHg 68%
09:00 +29°C° 0 mm 3 m/S 745 mmHg 60%
10:00 +31°C° 0 mm 3 m/S 746 mmHg 53%
11:00 +33°C° 0 mm 4 m/S 746 mmHg 46%
12:00 +34°C° 0 mm 4 m/S 746 mmHg 43%
13:00 +34°C° 0 mm 4 m/S 746 mmHg 41%
14:00 +35°C° 0 mm 4 m/S 745 mmHg 38%
15:00 +34°C° 0 mm 3 m/S 745 mmHg 42%
16:00 +34°C° 0 mm 3 m/S 745 mmHg 45%
17:00 +32°C° 0 mm 2 m/S 745 mmHg 49%
18:00 +30°C° 0 mm 2 m/S 745 mmHg 57%
19:00 +28°C° 0 mm 2 m/S 745 mmHg 66%
20:00 +26°C° 0 mm 1 m/S 745 mmHg 75%
21:00 +25°C° 0 mm 1 m/S 745 mmHg 77%
22:00 +24°C° 0 mm 2 m/S 745 mmHg 79%
23:00 +23°C° 0 mm 2 m/S 745 mmHg 81%

übermorgen, 24 Juni, Donnerstag

Zeit Temperatur Niederschläge Wind Luftdruck Luftfeuchtigkeit
00:00 +23°C° 0 mm 2 m/S 745 mmHg 83%
01:00 +22°C° 0 mm 1 m/S 745 mmHg 84%
02:00 +22°C° 0 mm 1 m/S 745 mmHg 85%
03:00 +22°C° 0 mm 1 m/S 745 mmHg 85%
04:00 +22°C° 0 mm 1 m/S 745 mmHg 85%
05:00 +23°C° 0 mm 1 m/S 745 mmHg 84%
06:00 +25°C° 0 mm 1 m/S 745 mmHg 77%
07:00 +27°C° 0 mm 1 m/S 745 mmHg 69%
08:00 +29°C° 0 mm 1 m/S 745 mmHg 62%
09:00 +30°C° 0 mm 1 m/S 745 mmHg 56%
10:00 +32°C° 0 mm 1 m/S 745 mmHg 51%
11:00 +33°C° 0 mm 1 m/S 745 mmHg 45%
12:00 +34°C° 0 mm 2 m/S 745 mmHg 43%
13:00 +35°C° 0 mm 2 m/S 745 mmHg 40%
14:00 +35°C° 0 mm 2 m/S 745 mmHg 37%
15:00 +35°C° 0 mm 2 m/S 745 mmHg 40%
16:00 +34°C° 0 mm 2 m/S 744 mmHg 43%
17:00 +34°C° 0 mm 2 m/S 744 mmHg 46%
18:00 +30°C° 0 mm 2 m/S 744 mmHg 56%
19:00 +28°C° 0 mm 1 m/S 744 mmHg 66%
20:00 +26°C° 0 mm 1 m/S 743 mmHg 76%
21:00 +25°C° 0.1 mm 1 m/S 743 mmHg 79%
22:00 +24°C° 0.1 mm 1 m/S 743 mmHg 81%
23:00 +23°C° 0.1 mm 1 m/S 743 mmHg 83%

25 Juni, Freitag

Zeit Temperatur Niederschläge Wind Luftdruck Luftfeuchtigkeit
00:00 +22°C° 0.6 mm 1 m/S 743 mmHg 87%
01:00 +22°C° 0.6 mm 1 m/S 743 mmHg 91%
02:00 +21°C° 0.6 mm 1 m/S 743 mmHg 94%
03:00 +21°C° 0.1 mm 1 m/S 743 mmHg 94%
04:00 +22°C° 0.1 mm 1 m/S 743 mmHg 93%
05:00 +22°C° 0.1 mm 1 m/S 743 mmHg 93%
06:00 +24°C° 0 mm 1 m/S 743 mmHg 85%
07:00 +26°C° 0 mm 1 m/S 743 mmHg 77%
08:00 +28°C° 0 mm 1 m/S 743 mmHg 69%
09:00 +30°C° 0 mm 2 m/S 743 mmHg 62%
10:00 +31°C° 0 mm 2 m/S 743 mmHg 54%
11:00 +34°C° 0 mm 2 m/S 743 mmHg 47%
12:00 +35°C° 0 mm 3 m/S 743 mmHg 46%
13:00 +35°C° 0 mm 3 m/S 743 mmHg 44%
14:00 +35°C° 0 mm 3 m/S 742 mmHg 43%
15:00 +35°C° 0 mm 3 m/S 742 mmHg 45%
16:00 +34°C° 0 mm 3 m/S 741 mmHg 48%
17:00 +34°C° 0 mm 2 m/S 740 mmHg 50%
18:00 +30°C° 0.3 mm 3 m/S 741 mmHg 61%
19:00 +28°C° 0.3 mm 3 m/S 741 mmHg 72%
20:00 +25°C° 0.3 mm 3 m/S 741 mmHg 83%
21:00 +22°C° 0.8 mm 3 m/S 741 mmHg 88%
22:00 +21°C° 0.8 mm 2 m/S 741 mmHg 92%
23:00 +19°C° 0.8 mm 2 m/S 741 mmHg 97%

26 Juni, Samstag

Zeit Temperatur Niederschläge Wind Luftdruck Luftfeuchtigkeit
00:00 +19°C° 0 mm 2 m/S 741 mmHg 96%
01:00 +18°C° 0 mm 2 m/S 740 mmHg 95%
02:00 +18°C° 0 mm 2 m/S 740 mmHg 94%
03:00 +19°C° 0.1 mm 2 m/S 740 mmHg 94%
04:00 +19°C° 0.1 mm 2 m/S 740 mmHg 95%
05:00 +19°C° 0.1 mm 2 m/S 741 mmHg 95%
06:00 +21°C° 0 mm 2 m/S 741 mmHg 87%
07:00 +24°C° 0 mm 2 m/S 740 mmHg 79%
08:00 +26°C° 0 mm 2 m/S 740 mmHg 72%
09:00 +28°C° 0 mm 2 m/S 741 mmHg 65%
10:00 +30°C° 0 mm 2 m/S 741 mmHg 58%
11:00 +32°C° 0 mm 2 m/S 741 mmHg 51%
12:00 +32°C° 0 mm 2 m/S 741 mmHg 49%
13:00 +34°C° 0 mm 2 m/S 741 mmHg 46%
14:00 +34°C° 0 mm 3 m/S 741 mmHg 43%
15:00 +32°C° 0 mm 2 m/S 740 mmHg 49%
16:00 +31°C° 0 mm 2 m/S 740 mmHg 54%
17:00 +31°C° 0 mm 1 m/S 740 mmHg 60%
18:00 +29°C° 0 mm 1 m/S 740 mmHg 66%
19:00 +27°C° 0 mm 1 m/S 740 mmHg 73%
20:00 +26°C° 0 mm 1 m/S 740 mmHg 80%
21:00 +25°C° 0.3 mm 1 m/S 740 mmHg 82%
22:00 +24°C° 0.3 mm 1 m/S 740 mmHg 85%
23:00 +21°C° 0.3 mm 0 m/S 740 mmHg 87%

27 Juni, Sonntag

Zeit Temperatur Niederschläge Wind Luftdruck Luftfeuchtigkeit
00:00 +20°C° 0.3 mm 0 m/S 740 mmHg 89%
01:00 +22°C° 0.3 mm 1 m/S 740 mmHg 90%
02:00 +21°C° 0.3 mm 1 m/S 740 mmHg 92%
03:00 +22°C° 0 mm 1 m/S 740 mmHg 91%
04:00 +22°C° 0 mm 1 m/S 740 mmHg 91%
05:00 +22°C° 0 mm 1 m/S 740 mmHg 90%
06:00 +24°C° 0 mm 1 m/S 740 mmHg 83%
07:00 +26°C° 0 mm 1 m/S 741 mmHg 76%
08:00 +28°C° 0 mm 1 m/S 741 mmHg 68%
09:00 +29°C° 0 mm 1 m/S 741 mmHg 61%
10:00 +31°C° 0 mm 1 m/S 741 mmHg 53%
11:00 +33°C° 0 mm 1 m/S 741 mmHg 46%
12:00 +33°C° 0 mm 1 m/S 740 mmHg 43%
13:00 +35°C° 0 mm 2 m/S 740 mmHg 41%
14:00 +35°C° 0 mm 2 m/S 740 mmHg 38%
15:00 +31°C° 0.7 mm 2 m/S 740 mmHg 50%
16:00 +29°C° 0.7 mm 3 m/S 740 mmHg 62%
17:00 +26°C° 0.7 mm 3 m/S 740 mmHg 74%
18:00 +24°C° 2.7 mm 3 m/S 740 mmHg 81%
19:00 +21°C° 2.7 mm 2 m/S 740 mmHg 88%
20:00 +20°C° 2.7 mm 2 m/S 740 mmHg 96%
21:00 +20°C° 1.6 mm 2 m/S 740 mmHg 96%
22:00 +20°C° 1.6 mm 3 m/S 740 mmHg 97%
23:00 +19°C° 1.6 mm 3 m/S 740 mmHg 97%
Mehr zeigen

Wir brauchen deine Erlaubnis

Meteoprog und unser Service Anbieter werden persönliche Daten aufbewahren, so wie Cookies, Geräte Bezeichnung oder ähnliche Technologien von deinem Gerät und Prozess, so wie Persönliche Daten Inhalte und Werbungen, genauso wie social Media und den Verkehr zu analysieren.

  • Aufbewahrung und/oder Zugang zu deiner Geräte Informationen.

    Cookies, Geräte Bezeichnung oder andere Informationen, können aufbewahrt oder Zugang zu deinem Gerät erhalten, für den Grund, der oben angegeben wird.

  • Personalisierte Werbung und Inhalte, Messungen, Einblick in das Publikum und Produkt Entwicklung.

    Werbungen und Inhalte können personalisiert werden, basierend auf ein Profil. Mehr Daten können besser personalisierte Werbungen und Inhalte hinzufügen. Werbung und Inhalte können gezeigt und gemessen werden. Einblicke über das Publikum, welche die Werbung gesehen haben und den Inhalt, können abgeleitet werden. So wie Daten können genutzt werden, um es zu verbessern oder die Benutzer Erfahrung zu verbessern das System und die Software.

Wenn du “Ich stimme zu” klickst, erlaubst du uns, die Cookies zu benutzen die Geräte Bezeichnung, den Web oder ähnliche Technologien zu benutzen. Deine Settings, können in deinem Gerät bei deinem Browser geändert werden.

Für den bestimmten Zweck, berechtigten Interessen beruhen darauf, mehr als auf den Inhalt. Du kannst mehr darüber in unseren Privaten und Cookie Politik lesen.